Simultaneous Nadir Overpasses (SNOs) Predictions

Prediction of SNOs between LANDSAT-8 and METOP-B Satellite Orbit:

Table of predicted SNOs for the next 14.0 days since TLE Epoch: 7/26/2019
Index Date (LANDSAT-8) Time (LANDSAT-8) Lat,Lon (LANDSAT-8) SZA (LANDSAT-8 ) Date (METOP-B) Time (METOP-B) Lat,Lon (METOP-B) SZA (METOP-B ) Distance(km) Time Diff (sec)
1 07/26/2019 23:04:36 81.18,-125.27 63.91 07/26/2019 23:05:47 81.17,-125.46 63.92 3.19 71
2 07/29/2019 17:00:01 81.15, -34.48 64.49 07/29/2019 16:58:50 81.14, -34.60 64.44 2.20 71
3 07/29/2019 17:49:27 -81.17, 133.47 115.46 07/29/2019 17:49:29 -81.16, 133.33 115.48 2.57 2
4 08/01/2019 12:34:19 81.14, 31.74 65.15 08/01/2019 12:33:12 81.15, 31.89 65.14 2.75 67
5 08/01/2019 13:23:45 -81.16,-160.28 114.80 08/01/2019 13:23:51 -81.17,-160.16 114.78 2.14 6
6 08/04/2019 08:08:36 81.16, 98.43 65.92 08/04/2019 08:07:34 81.15, 98.37 65.88 1.29 62
7 08/04/2019 08:58:03 -81.16, -93.93 114.08 08/04/2019 08:58:14 -81.16, -94.04 114.08 1.94 11
8 08/07/2019 03:42:53 81.16, 164.86 66.68 08/07/2019 03:41:55 81.15, 164.84 66.65 0.70 58




NCC Satellite Simultaneous Nadir Overpasses (SNOs) Prediction Service
